Location: Newark
(42.8481°N, 0.4872°E)
Time: 03:14:02
(UTC+00:00)

SR - Pass Details

Date: 05 November 2020
Orbit: 579 x 876 km, 66.7° (Epoch: 26 November)

Event Time Altitude Azimuth Distance (km) Brightness Sun altitude
Rises 00:56:25 0° 232° (SW) 2,786 - -58.6°
Reaches altitude 10° 00:58:45 10° 241° (WSW) 1,898 - -58.3°
Maximum altitude 01:02:39 36° 309° (NW) 958 - -57.9°
Drops below altitude 10° 01:06:46 10° 16° (NNE) 1,990 - -57.4°
Sets 01:09:16 0° 25° (NNE) 2,941 - -57.1°
